Weather History for Brunswick, GA

Change the Weather History Date:

Thursday, February 14, 2013

  Actual Average Record
Temperature  
Mean Temperature 52 °F -  
Max Temperature 59 °F 64 °F 83 °F (1962)
Min Temperature 46 °F 42 °F 24 °F (2006)
Degree Days  
Heating Degree Days 12    
Growing Degree Days 2 (Base 50)    
Moisture  
Dew Point 47 °F    
Average Humidity 79    
Maximum Humidity 94    
Minimum Humidity 67    
Precipitation  
Precipitation 0.00 in - - ()
Sea Level Pressure  
Sea Level Pressure 30.04 in    
Wind  
Wind Speed 4 mph (NW)    
Max Wind Speed 9 mph    
Max Gust Speed -    
Visibility 10 miles    
Events      
Averages and records for this station are not official NWS values.
T = Trace of Precipitation, MM = Missing Value Source: NWS Daily Summary

Daily Weather History Graph

Daily Weather History Graph

Search for Another Location

Airport:

Trip Planner

Search our weather history database for the weather conditions in past years. The results will help you decide how hot, cold, wet, or windy it might be!

Date:

Astronomy

Feb. 14, 2013 Rise Set
Actual Time 7:07 AM EST 6:12 PM EST
Civil Twilight 6:43 AM EST 6:37 PM EST
Nautical Twilight 6:14 AM EST 7:05 PM EST
Astronomical Twilight 5:46 AM EST 7:34 PM EST
Moon 9:30 AM EST (2/14) 10:50 PM EST (2/14)
Length of Visible Light 11h 54m
Length of Day
11h 04m
Waxing Crescent, 21% of the Moon is Illuminated
Feb 14
Waxing Crescent
Feb 17
First Quarter
Feb 25
Full
Mar 4
Last Quarter
Mar 11
New

Hourly Weather History & Observations

Time (EST) Temp. Dew Point Humidity Pressure Visibility Wind Dir Wind Speed Gust Speed Precip Events Conditions
12:15 AM 59.0 °F 51.8 °F 77% 29.97 in 10.0 mi WNW 9.2 mph - N/A   Mostly Cloudy
12:35 AM 59.0 °F 50.0 °F 72% 29.96 in 10.0 mi WNW 8.1 mph - N/A   Mostly Cloudy
12:55 AM 57.2 °F 48.2 °F 72% 29.94 in 10.0 mi NW 3.5 mph - N/A   Mostly Cloudy
1:15 AM 57.2 °F 46.4 °F 67% 29.96 in 10.0 mi NW 8.1 mph - N/A   Mostly Cloudy
1:35 AM 55.4 °F 46.4 °F 72% 29.97 in 10.0 mi WNW 8.1 mph - N/A   Scattered Clouds
1:55 AM 55.4 °F 46.4 °F 72% 29.95 in 10.0 mi NW 4.6 mph - N/A   Scattered Clouds
2:15 AM 55.4 °F 48.2 °F 77% 29.96 in 10.0 mi WNW 6.9 mph - N/A   Mostly Cloudy
2:35 AM 55.4 °F 48.2 °F 77% 29.97 in 10.0 mi West 4.6 mph - N/A   Mostly Cloudy
2:55 AM 55.4 °F 48.2 °F 77% 29.99 in 10.0 mi WNW 6.9 mph - N/A   Mostly Cloudy
3:15 AM 55.4 °F 48.2 °F 77% 29.95 in 10.0 mi Calm Calm - N/A   Mostly Cloudy
3:35 AM 55.4 °F 48.2 °F 77% 29.94 in 10.0 mi Calm Calm - N/A   Overcast
3:55 AM 55.4 °F 48.2 °F 77% 29.98 in 10.0 mi WNW 6.9 mph - N/A   Mostly Cloudy
4:15 AM 55.4 °F 48.2 °F 77% 29.98 in 10.0 mi NW 5.8 mph - N/A   Overcast
4:35 AM 53.6 °F 50.0 °F 88% 29.96 in 10.0 mi North 3.5 mph - N/A   Overcast
4:55 AM 53.6 °F 50.0 °F 88% 30.00 in 10.0 mi WNW 4.6 mph - N/A   Mostly Cloudy
5:15 AM 53.6 °F 50.0 °F 88% 29.98 in 10.0 mi Calm Calm - N/A   Scattered Clouds
5:35 AM 53.6 °F 50.0 °F 88% 30.00 in 10.0 mi Calm Calm - N/A   Scattered Clouds
5:55 AM 51.8 °F 50.0 °F 94% 29.99 in 10.0 mi Calm Calm - N/A   Scattered Clouds
6:15 AM 51.8 °F 50.0 °F 94% 30.01 in 10.0 mi WNW 3.5 mph - N/A   Clear
6:35 AM 51.8 °F 50.0 °F 94% 30.00 in 10.0 mi Calm Calm - N/A   Clear
6:55 AM 51.8 °F 50.0 °F 94% 30.01 in 10.0 mi Calm Calm - N/A   Clear
7:15 AM 51.8 °F 50.0 °F 94% 30.02 in 10.0 mi WNW 3.5 mph - N/A   Clear
7:35 AM 51.8 °F 50.0 °F 94% 30.03 in 10.0 mi Calm Calm - N/A   Scattered Clouds
7:55 AM 51.8 °F 48.2 °F 88% 30.04 in 10.0 mi Calm Calm - N/A   Mostly Cloudy
8:15 AM 53.6 °F 50.0 °F 88% 30.04 in 10.0 mi Calm Calm - N/A   Mostly Cloudy
8:35 AM 53.6 °F 48.2 °F 82% 30.07 in 10.0 mi WNW 4.6 mph - N/A   Mostly Cloudy
8:55 AM 53.6 °F 48.2 °F 82% 30.06 in 10.0 mi NNW 3.5 mph - N/A   Scattered Clouds
9:15 AM 53.6 °F 46.4 °F 77% 30.06 in 10.0 mi North 4.6 mph - N/A   Clear
9:35 AM 53.6 °F 46.4 °F 77% 30.09 in 10.0 mi NNW 5.8 mph - N/A   Clear
9:55 AM 53.6 °F 46.4 °F 77% 30.08 in 10.0 mi NW 5.8 mph - N/A   Clear
10:15 AM 53.6 °F 46.4 °F 77% 30.09 in 10.0 mi WNW 4.6 mph - N/A   Clear
10:35 AM 53.6 °F 46.4 °F 77% 30.09 in 10.0 mi WNW 4.6 mph - N/A   Clear
10:55 AM 53.6 °F 46.4 °F 77% 30.08 in 10.0 mi North 4.6 mph - N/A   Clear
11:15 AM 53.6 °F 46.4 °F 77% 30.09 in 10.0 mi WNW 6.9 mph - N/A   Clear
11:35 AM 53.6 °F 44.6 °F 72% 30.11 in 10.0 mi NW 3.5 mph - N/A   Clear
11:55 AM 55.4 °F 46.4 °F 72% 30.09 in 10.0 mi West 6.9 mph - N/A   Clear
12:15 PM 55.4 °F 44.6 °F 67% 30.08 in 10.0 mi WSW 4.6 mph - N/A   Clear
12:35 PM 55.4 °F 44.6 °F 67% 30.07 in 10.0 mi Calm Calm - N/A   Clear
12:55 PM 55.4 °F 44.6 °F 67% 30.06 in 10.0 mi NNW 4.6 mph - N/A   Clear
1:15 PM 55.4 °F 44.6 °F 67% 30.07 in 10.0 mi WNW 5.8 mph - N/A   Clear
1:35 PM 55.4 °F 44.6 °F 67% 30.04 in 10.0 mi Calm Calm - N/A   Clear
1:55 PM 55.4 °F 44.6 °F 67% 30.04 in 10.0 mi WNW 4.6 mph - N/A   Clear
2:15 PM 55.4 °F 44.6 °F 67% 30.02 in 10.0 mi NW 4.6 mph - N/A   Clear
2:35 PM 55.4 °F 44.6 °F 67% 30.04 in 10.0 mi Calm Calm - N/A   Clear
2:55 PM 55.4 °F 44.6 °F 67% 30.06 in 10.0 mi West 3.5 mph - N/A   Clear
3:15 PM 55.4 °F 44.6 °F 67% 30.05 in 10.0 mi NW 5.8 mph - N/A   Clear
3:35 PM 55.4 °F 44.6 °F 67% 30.06 in 10.0 mi WNW 5.8 mph - N/A   Clear
3:55 PM 55.4 °F 44.6 °F 67% 30.06 in 10.0 mi West 5.8 mph - N/A   Clear
4:15 PM 55.4 °F 44.6 °F 67% 30.04 in 10.0 mi Calm Calm - N/A   Clear
4:35 PM 53.6 °F 44.6 °F 72% 30.03 in 10.0 mi NW 4.6 mph - N/A   Clear
4:55 PM 53.6 °F 44.6 °F 72% 30.04 in 10.0 mi Calm Calm - N/A   Clear
5:15 PM 53.6 °F 44.6 °F 72% 30.06 in 10.0 mi NW 3.5 mph - N/A   Clear
5:35 PM 53.6 °F 44.6 °F 72% 30.02 in 10.0 mi Calm Calm - N/A   Clear
5:55 PM 53.6 °F 44.6 °F 72% 30.06 in 10.0 mi Calm Calm - N/A   Clear
6:15 PM 51.8 °F 44.6 °F 76% 30.04 in 10.0 mi Calm Calm - N/A   Scattered Clouds
6:35 PM 51.8 °F 46.4 °F 82% 30.05 in 10.0 mi Calm Calm - N/A   Scattered Clouds
6:55 PM 51.8 °F 46.4 °F 82% 30.06 in 10.0 mi Calm Calm - N/A   Clear
7:15 PM 51.8 °F 46.4 °F 82% 30.06 in 10.0 mi Calm Calm - N/A   Clear
7:35 PM 51.8 °F 46.4 °F 82% 30.06 in 10.0 mi Calm Calm - N/A   Clear
7:55 PM 51.8 °F 46.4 °F 82% 30.08 in 10.0 mi Calm Calm - N/A   Clear
8:15 PM 50.0 °F 46.4 °F 87% 30.07 in 10.0 mi NNW 3.5 mph - N/A   Clear
8:35 PM 50.0 °F 46.4 °F 87% 30.06 in 10.0 mi Calm Calm - N/A   Clear
8:55 PM 48.2 °F 44.6 °F 87% 30.08 in 10.0 mi WNW 4.6 mph - N/A   Clear
9:15 PM 50.0 °F 46.4 °F 87% 30.11 in 10.0 mi West 4.6 mph - N/A   Clear
9:35 PM 50.0 °F 46.4 °F 87% 30.09 in 10.0 mi Calm Calm - N/A   Clear
9:55 PM 50.0 °F 46.4 °F 87% 30.09 in 10.0 mi Calm Calm - N/A   Clear
10:15 PM 50.0 °F 44.6 °F 82% 30.09 in 10.0 mi NW 3.5 mph - N/A   Clear
10:35 PM 48.2 °F 44.6 °F 87% 30.07 in 10.0 mi NW 3.5 mph - N/A   Clear
10:55 PM 50.0 °F 44.6 °F 82% 30.09 in 10.0 mi NW 4.6 mph - N/A   Clear
11:15 PM 48.2 °F 44.6 °F 87% 30.09 in 10.0 mi WNW 3.5 mph - N/A   Clear
11:35 PM 46.4 °F 44.6 °F 93% 30.07 in 10.0 mi Calm Calm - N/A   Clear
11:55 PM 46.4 °F 44.6 °F 93% 30.09 in 10.0 mi Calm Calm - N/A   Clear